Regional Weather Roundup
Issued by NWS Wakefield, VA

Home | Current Version | Previous Version | Graphics & Text | Print | Product List | Glossary On
Versions: 1 2 3 4 5 6 7 8 9 10 11 12 13 14 15 16 17 18 19 20 21 22 23 24 25 26 27 28 29 30 31 32 33 34 35 36 37 38 39 40 41 42 43 44 45 46 47 48 49 50
000
ASUS41 KAKQ 281715
RWRAKQ

REGIONAL WEATHER ROUNDUP
NATIONAL WEATHER SERVICE WAKEFIELD VA
100 PM EDT TUE JUL 28 2015

Note: "fair" indicates few or no clouds below 12,000 feet with no
significant weather and/or obstructions to visibility. * = Denotes
station may not report precipitation (e.g., rain,snow,etc.),
thunder or fog.

VAZ042-051-052>054-056-281800-
NORTHERN VIRGINIA

CITY           SKY/WX    TMP DP  RH WIND       PRES   REMARKS
WASH NATIONAL  MOSUNNY   92  73  53 CALM      30.00F HX 100
DULLES         PTSUNNY   85  71  63 CALM      30.01F
FORT BELVOIR   PTSUNNY   87  73  62 VRB3      30.00F HX  95
QUANTICO       MOSUNNY   86  73  65 E6        30.00F
FREDERICKSBRG* MOSUNNY   89  75  65 E5        29.99F HX  99
STAFFORD*      PTSUNNY   86  72  62 NE3       30.04F
WARRENTON      MOSUNNY   88  76  67 SE5       30.00F HX  99
CULPEPER*      CLOUDY    84  74  72 CALM      30.01F
MANASSAS*      MOSUNNY   88  73  62 S3        30.00F HX  96
LEESBURG*      MOSUNNY   88  73  62 S5        30.02F HX  96
WINCHESTER     PTSUNNY   86  72  62 E3        30.03F
FRONT ROYAL*   FAIR      82  73  74 CALM      30.03S
LURAY*         CLOUDY    84  73  70 N6        30.03F
$$

VAZ048-049-060>072-079>083-281800-
CENTRAL AND SOUTH CENTRAL VIRGINIA

CITY           SKY/WX    TMP DP  RH WIND       PRES   REMARKS
RICHMOND       PTSUNNY   85  74  69 SE6       29.99F
CHESTERFIELD*  CLOUDY    79  66  65 E7        30.01F
PETERSBURG*    RAIN      82  81  98 N5        30.01F
HANOVER        MOSUNNY   87  75  67 VRB3      30.01F HX  96
TAPPAHANNOCK*  PTSUNNY   89  69  50 SE7       30.01F
QUINTON*       PTSUNNY   86  75  71 SE7       29.99F HX  95
CHARLOTTSVILLE MOSUNNY   85  73  67 NE5       30.02F
GORDONSVILLE*  PTSUNNY   84  75  74 NE6       30.00F
ORANGE*        PTSUNNY   86  73  66 N3        30.03F
LOUISA*        PTSUNNY   86  73  66 NE3       30.01S
BUMPASS*       PTSUNNY   84  74  72 CALM      30.01F
FARMVILLE*     PTSUNNY   86  73  64 W3        29.99F
CREWE*         CLOUDY   N/A N/A N/A E3        30.00F
FORT PICKETT*  CLOUDY    82  74  78 SE6       30.01F
CHASE CITY*    CLOUDY    87  76  68 SE5       30.01F HX  97
CLARKSVILLE*   PTSUNNY   86  73  66 SE6       30.01F
SOUTH HILL*    CLOUDY    79  75  89 CALM      30.08F
LAWRENCEVILLE* CLOUDY    77  75  94 CALM      30.03F
EMPORIA*       CLOUDY    86  72  62 SE8       30.02F
$$

VAZ088>098-281800-
SOUTHEAST VIRGINIA

CITY           SKY/WX    TMP DP  RH WIND       PRES   REMARKS
NORFOLK        PTSUNNY   85  70  60 S6        30.02F
VIRGINIA BEACH PTSUNNY   86  71  60 S9        30.02F
NORFOLK NAVAL  CLOUDY    86  69  56 VRB5      30.03F
WEST POINT*    MOSUNNY   90  72  55 S9        30.02F HX  96
SALUDA*        PTSUNNY   85  74  70 SW3       30.00F
NEWPORT NEWS   PTSUNNY   90  70  51 SE7       30.02F HX  95
LANGLEY AFB    PTSUNNY   86  72  63 SE9       30.02F
FORT EUSTIS    MOSUNNY   86  72  63 S8        30.00F
WILLIAMSBURG*  SUNNY     90  75  62 SE10      30.02F HX 100
HR EXEC AP*    PTSUNNY   88  72  58 S6        30.04F
FRANKLIN*      CLOUDY    85  72  64 SE7       30.03S
WAKEFIELD      MOSUNNY   88  72  58 S8        30.01F
$$

VAZ020-022-025-037-045-281800-
WEST CENTRAL AND SOUTHWEST VIRGINIA

CITY           SKY/WX    TMP DP  RH WIND       PRES   REMARKS
STAUNTON*      PTSUNNY   86  72  62 CALM      30.06F
WAYNESBORO*    PTSUNNY   80  70  72 CALM      30.06F
HOT SPRINGS VA CLOUDY    73  70  91 SE5       30.17F
LYNCHBURG      MOSUNNY   82  72  71 CALM      30.04F
DANVILLE       MOSUNNY   88  74  63 SW5       30.01F HX  96
SOUTH BOSTON*  FAIR      87  72  60 S3        30.00F
MARTINSVILLE   PTSUNNY   87  71  58 SW3       30.05F
ROANOKE        PTSUNNY   83  71  67 N3        30.05F
BLACKSBURG     PTSUNNY   82  71  69 CALM      30.11F
DUBLIN*          N/A     84  72  67 CALM      30.09F
MARION*        SUNNY     83  71  67 W5        30.13F
HILLSVILLE*    MOSUNNY   79  69  73 CALM      30.11F
RICHLANDS*     PTSUNNY   80  71  73 W8        30.12S
WISE*          PTSUNNY   84  66  54 SE3       30.13S
ABINGDON*      MOSUNNY   85  71  62 SW5       30.09F
$$

MDZ021>025-VAZ099-100-281800-
SOUTHERN MARYLAND AND THE DELMARVA PENINSULA

CITY           SKY/WX    TMP DP  RH WIND       PRES   REMARKS
PATUXENT RIVER MOSUNNY   84  73  69 E6        30.00F
BAY BRIDGE APT   N/A     82  73  74 NW5       30.00F
LEONARDTOWN    MOSUNNY   84  72  65 CALM      30.01F
DOVER          DRIZZLE   86  75  69 VRB2      29.98F HX  95
GEORGETOWN     PTSUNNY   87  72  60 VRB5      30.00F
EASTON         PTSUNNY   88  75  66 VRB3      30.03F HX  97
CAMBRIDGE      MOSUNNY   86  70  58 CALM      30.00F
SALISBURY      MOSUNNY   85  73  67 CALM      30.00F
OCEAN CITY     MOSUNNY   84  73  69 S9        30.01F
WALLOPS ISLAND PTSUNNY   82  75  79 S14       30.02F
ACCOMACK*      CLOUDY   N/A N/A N/A S6        30.02
$$

NCZ012>017-030>032-281800-
NORTH CENTRAL AND EASTERN NORTH CAROLINA

CITY           SKY/WX    TMP DP  RH WIND       PRES   REMARKS
ROANOKE RAPIDS FAIR      84  70  61 S9        30.02F
RALEIGH        PTSUNNY   86  70  58 SE7       30.03S
ELIZABETH CITY CLOUDY    85  68  56 SE8       30.04F
AHOSKIE*       MOSUNNY   84  71  64 SE7       30.03F
EDENTON*         N/A     85  70  60 S5        30.03F
CURRITUCK*     PTSUNNY   86  66  52 SE3       30.05S
KILL DEVIL HLS MOSUNNY   89  68  49 E9        30.03F
MANTEO         CLOUDY    83  70  63 S9        30.04F
CAPE HATTERAS  SUNNY     86  69  56 E9        30.02F
TARBORO*         N/A     88  71  56 SE5       30.03F
GOLDSBORO      NOT AVBL
WASHINGTON     SUNNY     86  68  55 E7        30.03F
GREENVILLE     MOSUNNY   88  68  51 E5        30.04F
NEW BERN       MOSUNNY   86  71  60 VRB5      30.03F
WILMINGTON     MOSUNNY   85  70  60 E9        30.02S
$$

VAZ048-281800-
ELSEWHERE

CITY           SKY/WX    TMP DP  RH WIND       PRES   REMARKS
HARRISBURG PA  MOSUNNY   87  70  56 CALM      30.00F
BALTIMORE      MOSUNNY   87  69  54 SE5       30.00F
ANNAPOLIS      MOSUNNY   84  72  67 SE8       30.00F
ANDREWS AFB    MOSUNNY   86  73  66 SE3       30.00F
PHILADELPHIA   MOSUNNY   88  68  51 VRB5      29.99F
HENDERSON NC   MOSUNNY   86  69  57 S8        30.03F
GREENSBORO     PTSUNNY   85  71  63 S8        30.03S
ROCKY MOUNT    MOSUNNY   89  68  49 VRB7      30.02F
$$

VAZ100-281800-
MARINE

STATION/POSITION TIME  TEMP    WIND        PRES    WAVE   SWELL
                       AIR SEA DIR/SP/G            HT/PER HT/PER
                 (UTC) (F)     (DEG/KT/KT) (MB)    (FT/S) (FT/S)
BRANDYWINE LGT   1600   77 77  230/  4/  4 1016.7S
CAPE MAY NJ      1600   78 80  240/  8/  9 1016.1S
LEWES DE         1600   76 74   40/  5/  5 1016.3S
15NM E FENWICK I 1650   79 80  190/  6/  8 1016.5F   2/11   2/11
OCEAN-CITY-INLET 1600   80 78  200/  7/ 10 1015.6S
WACHAPREAGUE VA  1600   83 83  210/  6/  9 1016.8R
GOOSES REEF MD   1700   81 84   CALM  /  4 1017.0F
COVE POINT MD    1600   80     100/  1/  2 1017.0S
SOLOMONS ISLAND  1600      82                N/A
BISHOPS HEAD MD  1600   80 81  260/  3/  4 1015.6R
POTOMAC MD       1700   82 84  130/  8/  8 1014.9F   0
CAMBRIDGE MD     1600   83 83   50/  4/  4 1015.4S
LEWISETTA VA     1600   81 82   60/  5/  6 1015.8F
RAPPAHANNOCK LGT 1600          190/ 11/ 12 1017.2R
STINGRAY PT      1700   82 84  160/ 14/ 16 1016.3F   1/ 3
YORK RVR RNG VA  1600   81     170/  9/ 11 1016.3R
YORKTOWN VA      1600   82 83  200/  5/  7 1016.5R
JAMESTOWN VA     1700   82 85  120/ 10/ 12   N/A
DOMINION TERM VA 1600   83     240/  3/  4 1016.7R
CHES BAY BRIDGE  1600   82 80   80/  5/  8 1016.6R
CAPE HENRY VA    1600   81     130/ 12/ 14   N/A
CHESAPEAKE LGHT  1600   79     170/ 10/ 11 1017.8R
WILLOUBY STN VA  1600   83      CALM  /  2 1017.9R
CAPE HENRY BUOY  1628      81                N/A     2/11   2/11
1ST LANDING BUOY 1700      81              1016.3F   1/ 4
CAPE CHARLES BUO 1626      80                N/A     2/11   2/11
OFFSHORE WE BUOY 1611      81                N/A     2/11   2/11
64NM E OF VA BCH 1650   80 81  200/  6/  8 1017.2F   2/11   2/11
DUCK PIER NC     1600   81 68  130/ 10/ 10 1016.6R
44100 DUCK FRF   1624      81                N/A     2/11   2/11
44056 DUCK FRF   1611      80                N/A     2/11   2/11
OREGON INLET NC  1600   82 82   90/  6/  9 1017.4R
HATTERAS NC      1600   84 81  110/  6/ 10 1016.9F
CAPE LOOKOUT NC  1700   82      90/ 11/ 12 1016.0F
$$


USA.gov is the U.S. government's official web portal to all federal, state and local government web resources and services.